Location: Carrières
(48.9495°N, 2.0407°E)
Time: 11:19:13
(UTC+00:00)

Transit 2A - Pass Details

Date: 19 April 2024
Orbit: 594 x 958 km, 66.7° (Epoch: 24 May)

Event Time Altitude Azimuth Distance (km) Brightness Sun altitude
Rises 15:46:39 0° 319° (NW) 3,256 9.6 28.8°
Reaches altitude 10° 15:49:05 10° 311° (NW) 2,382 9.1 28.5°
Maximum altitude 15:54:09 38° 245° (WSW) 1,278 9.3 27.7°
Drops below altitude 10° 15:59:37 10° 179° (S) 2,578 9.0 26.8°
Sets 16:02:22 0° 172° (S) 3,555 9.5 26.3°
